Ely, NV

5:26 AM PST on November 23, 2017 (GMT -0800)
Ely

Weather History for KELY - September, 2012

Change the Weather History Date:

Sunday, September 23, 2012

  Actual Average Record
Temperature  
Mean Temperature 65 °F 54 °F  
Max Temperature 79 °F 73 °F 86 °F (2001)
Min Temperature 51 °F 35 °F 19 °F (1977)
Degree Days  
Heating Degree Days 0 11  
Month to date heating degree days 88 160  
Since 1 July heating degree days 94 224  
Cooling Degree Days 0 0  
Month to date cooling degree days 5 4  
Year to date cooling degree days 314 216  
Growing Degree Days 16 (Base 50)    
Moisture  
Dew Point 34 °F    
Average Humidity 34    
Maximum Humidity 51    
Minimum Humidity 17    
Precipitation  
Precipitation T in 0.03 in 0.62 in (1958)
Month to date precipitation 0.87 0.62  
Year to date precipitation 8.80 7.26  
Snow  
Snow 0.00 in 0.00 in 3.00 in (1901)
Month to date snowfall 0.0 0.2  
Since 1 July snowfall 0.0 0.2  
Since 1 September snowfall 0.0 0.2  
Snow Depth 0.00 in    
Sea Level Pressure  
Sea Level Pressure 29.92 in    
Wind  
Wind Speed 12 mph (South)    
Max Wind Speed 32 mph    
Max Gust Speed 41 mph    
Visibility 10 miles    
Events Rain    
T = Trace of Precipitation, MM = Missing Value Source: NWS Daily Summary

Daily Weather History Graph

Daily Weather History Graph

Search for Another Location

Airport or City:

Trip Planner

Search our weather history database for the weather conditions in past years. The results will help you decide how hot, cold, wet, or windy it might be!

Date:

Astronomy

Sep. 23, 2012 Rise Set
Actual Time 6:28 AM PDT 6:33 PM PDT
Civil Twilight 6:01 AM PDT 7:00 PM PDT
Nautical Twilight 5:30 AM PDT 7:31 PM PDT
Astronomical Twilight 4:58 AM PDT 8:03 PM PDT
Moon 2:36 PM PDT No Moon Set
Length of Visible Light 12h 58m
Length of Day
12h 05m
First Quarter, 61% of the Moon is Illuminated
Sep 23
First Quarter
Sep 29
Full
Oct 8
Last Quarter
Oct 15
New
Oct 21
First Quarter

Hourly Weather History & Observations

Time (PDT) Temp. Dew Point Humidity Pressure Visibility Wind Dir Wind Speed Gust Speed Precip Events Conditions
12:53 AM 54.0 °F 35.1 °F 49% 29.94 in 10.0 mi Calm Calm - N/A   Overcast
1:53 AM 55.9 °F 34.0 °F 44% 29.94 in 10.0 mi South 9.2 mph - N/A   Scattered Clouds
2:53 AM 55.0 °F 34.0 °F 45% 29.92 in 10.0 mi Calm Calm - N/A   Partly Cloudy
3:53 AM 51.1 °F 34.0 °F 52% 29.94 in 10.0 mi SSE 10.4 mph - N/A   Scattered Clouds
4:53 AM 55.0 °F 35.1 °F 47% 29.94 in 10.0 mi South 8.1 mph - N/A   Mostly Cloudy
5:53 AM 59.0 °F 34.0 °F 39% 29.94 in 10.0 mi SSW 11.5 mph - N/A   Mostly Cloudy
6:53 AM 55.9 °F 34.0 °F 44% 29.98 in 10.0 mi South 10.4 mph - N/A   Mostly Cloudy
7:53 AM 59.0 °F 35.1 °F 41% 29.99 in 10.0 mi South 10.4 mph - N/A   Clear
8:53 AM 63.0 °F 36.0 °F 37% 29.99 in 10.0 mi SSW 12.7 mph - N/A   Clear
9:53 AM 68.0 °F 36.0 °F 31% 29.97 in 10.0 mi SSW 8.1 mph - N/A   Clear
10:53 AM 73.9 °F 33.1 °F 22% 29.95 in 10.0 mi SSW 16.1 mph 26.5 mph N/A   Clear
11:53 AM 75.9 °F 33.1 °F 21% 29.94 in 10.0 mi South 17.3 mph 28.8 mph N/A   Clear
12:53 PM 77.0 °F 32.0 °F 19% 29.91 in 10.0 mi SSW 21.9 mph 33.4 mph N/A   Scattered Clouds
1:53 PM 78.1 °F 30.9 °F 18% 29.88 in 10.0 mi SW 20.7 mph 34.5 mph N/A   Partly Cloudy
2:53 PM 77.0 °F 32.0 °F 19% 29.87 in 10.0 mi South 15.0 mph 25.3 mph N/A   Partly Cloudy
3:53 PM 73.9 °F 32.0 °F 21% 29.87 in 10.0 mi SSE 9.2 mph 27.6 mph 0.00 in Rain Light Rain
4:53 PM 71.1 °F 35.1 °F 27% 29.87 in 10.0 mi SE 9.2 mph 18.4 mph 0.00 in Rain Light Rain
5:15 PM 71.6 °F 33.8 °F 25% 30.12 in 10.0 mi SSE 11.5 mph 18.4 mph 0.00 in   Mostly Cloudy
5:53 PM 72.0 °F 33.1 °F 24% 29.84 in 10.0 mi South 16.1 mph 24.2 mph 0.00 in   Clear
6:53 PM 71.1 °F 30.0 °F 22% 29.85 in 10.0 mi South 13.8 mph - N/A   Mostly Cloudy
7:53 PM 69.1 °F 28.9 °F 22% 29.86 in 10.0 mi South 11.5 mph - N/A   Clear
8:53 PM 66.9 °F 27.0 °F 22% 29.85 in 10.0 mi South 10.4 mph 21.9 mph N/A   Clear
9:53 PM 66.0 °F 26.1 °F 22% 29.85 in 10.0 mi Variable 3.5 mph - N/A   Clear
10:53 PM 59.0 °F 39.0 °F 48% 29.87 in 10.0 mi NNE 15.0 mph - N/A   Partly Cloudy
11:53 PM 57.9 °F 39.9 °F 51% 29.88 in 10.0 mi NNE 15.0 mph 20.7 mph N/A   Mostly Cloudy